STARLINK-32929, 63021

Orbit data source: Space-Track

STARLINK-32929, 63021 is a payload satellite owned by SpaceX/Seattle (US) in LEO that was launched on Sat, 15 Feb 2025 UTC via an FALCON 9 launch vehicle from the Air Force Eastern Test Range (AFETR). Payload-class satellites include a variety of spacecraft equipped with specific instruments for various scientific and technological missions. These include communications satellites like Starlink; space stations such as the ISS; scientific satellites like the Hubble; Earth observation satellites from companies like Planet Labs, Umbra, and HawkEye 360; GPS; miniature CubeSats for education and research; and military/defense satellites.

Loading next visibility...
Identifier
63021, 2025-032S
Orbit
LEO
Country
Flag of USUS
Related business
Manufacturer
SpaceX/Seattle
Mission
Operational Commercial Communications
Bus & Motor
STARLINK V2M, Unknown motor
Mass
730 kg wet, ~700 kg dry
Launch date (UTC)
2025-02-15 (8 months ago)
Launch vehicle
FALCON 9
Launch site
Air Force Eastern Test Range (AFETR)
Object type
Payload
Rocket body
Debris
Shape & HBR
Box + 2 Pan, 17.7 m
Radar Cross Section
33.884 m², Large (>1 m²)

Expand to show TLE details & history
Last TLE update: 22 hours ago

TLE from 22 hours ago
0 STARLINK-32929
1 63021U 25032S   25301.51529154  .00039009  00000-0  14180-2 0  9994
2 63021  43.0022   2.6746 0001600 267.0824  92.9844 15.27617006 40405
Epoch: 2025-10-28T12:22Z
TLE epoch observation values (Epoch: 2025-10-28T12:22:01.189Z)
Latitude
-0.00004°
Longitude
140.06793°
Altitude
482.771 km
Speed
7.626 km/s
True Right ascension
00h 10m 41s
True Declination
0° 00' 00"
Sunlit
Object was in full shadow at epoch
Visualization orbit readout
Latitude
Unknown
Longitude
Unknown
Altitude
Unknown
Speed
Unknown
Apparent Right ascension
Unknown
Apparent Declination
Unknown
Sunlit
N/A
Visualization observer readout
Local Sidereal Time
05:26:53
Azimuth
Unknown
Elevation
Unknown
Doppler factor
Unknown
Orbital elements
Apogee altitude
485.981 km
Perigee altitude
483.785 km
Semi-major axis
6,863.02 km
Eccentricity
0.00016
Inclination
43.0022°
RAAN
2.6746°
Arg. of periapsis
267.0824°
True anomaly
93.00271°
Mean anomaly
92.9844°
Eccentric anomaly
92.99355°
Mean motion
3.81742 °/min
Orbital period
94.3 mins
BSTAR
0.001418
Loading maneuver chart data...
Computing Atmospheric mass density...
Loading historical data...
Loading historical data...
Loading historical data...
Loading historical data...
Loading historical data...
Loading historical data...
Loading historical data...

Documentation

Showing up to 5 results
|